User: anonymous   Login
Location: Caltech
(34.1382°N, 118.1253°W)
Time: 15:41:29
(UTC-07:00)
Language:

ADEOS II - Orbit

View from above orbital plane
View from above orbital plane
View from above satellite
View from above satellite

Ground track
Ground track

The orbit data is extracted from the following two-line orbital elements,

1 27597U 02056A   16145.95107136 +.00000058 +00000-0 +40522-4 0  9992
2 27597 098.3202 127.1780 0002060 063.4926 296.6466 14.27211999700045
Epoch (UTC): 24 May 2016 22:49:32
Eccentricity: 0.0002060
inclination: 98.3202°
perigee height: 799 km
apogee height: 802 km
right ascension of ascending node: 127.1780°
argument of perigee: 63.4926°
revolutions per day: 14.27211999
mean anomaly at epoch: 296.6466°
orbit number at epoch: 70004

The dashed part of the orbit path shows where the satellite is in the earth's shadow,  

DLR